Location: Dehesa de la Cepeda
(40.6574°N, 4.3013°W)
Time: 10:37:46
(UTC+00:00)

Transit 2A Rocket - Pass Details

Date: 06 August 2021
Orbit: 586 x 917 km, 66.7° (Epoch: 24 September)

Event Time Altitude Azimuth Distance (km) Brightness Sun altitude
Rises 11:56:52 0° 174° (S) 2,819 8.3 65.2°
Reaches altitude 10° 11:59:25 10° 159° (SSE) 1,948 7.7 65.4°
Maximum altitude 12:02:50 23° 108° (ESE) 1,352 6.8 65.5°
Drops below altitude 10° 12:06:26 10° 56° (ENE) 2,071 7.3 65.6°
Sets 12:09:13 0° 43° (NE) 3,046 8.0 65.7°
